Stations météo

réclame
Mon MeteoGroup
Vinga, Suède (2516): Température de l'air & dewpoint: 13.11.2017 20:00:00 - 19.11.2017 20:00:00 (CET)Vinga, Suède (2516): Vitesse du vent & gusts: 13.11.2017 20:00:00 - 19.11.2017 20:00:00 (CET)Vinga, Suède (2516): Direction du vent: 13.11.2017 20:00:00 - 19.11.2017 20:00:00 (CET)Vinga, Suède (2516): reduced air pressure: 13.11.2017 20:00:00 - 19.11.2017 20:00:00 (CET)Vinga, Suède (2516): visibility: 13.11.2017 20:00:00 - 19.11.2017 20:00:00 (CET)Vinga, Suède (2516): Quantités de précipitations: 13.11.2017 20:00:00 - 19.11.2017 20:00:00 (CET)
Date & Time tt [°C] td [°C] ff [km/h] ff [knt] fx [km/h] fx [knt] dd ppp [hPa] vv [km] rr [mm]
19.11.2017 20:00:00 1,5 -3,2 24 13 38 20 NNE 1006,9 50 0,0
19.11.2017 19:00:00 2,0 -2,9 29 15 41 22 N 1006,3 50 0,0
19.11.2017 18:00:00 1,7 -2,6 30 16 41 22 N 1006,0 50 0,0
19.11.2017 17:00:00 1,6 -2,0 26 14 45 24 N 1005,2 46 0,0
19.11.2017 16:00:00 2,1 -0,7 32 17 46 25 N 1004,3 50 0,0
19.11.2017 15:00:00 1,9 -1,0 34 19 56 30 N 1003,1 50 0,0
19.11.2017 14:00:00 2,5 -0,3 42 23 63 34 N 1001,8 48 0,0
19.11.2017 13:00:00 2,4 0,0 49 26 66 36 N 1000,7 32 0,0
19.11.2017 12:00:00 1,6 0,3 52 28 74 40 N 999,7 7 0,2
19.11.2017 11:00:00 2,4 0,3 54 29 74 40 N 998,3 16 0,0
19.11.2017 10:00:00 2,4 0,1 49 27 68 37 N 997,2 21 0,0
19.11.2017 09:00:00 2,8 0,2 45 25 69 37 N 995,9 29 0,0
19.11.2017 08:00:00 3,2 0,3 43 23 63 34 N 994,6 45 0,0
19.11.2017 07:00:00 3,8 1,3 44 24 61 33 N 993,5 50 0,0
19.11.2017 06:00:00 4,2 2,4 42 23 61 33 N 992,5 45 0,0
19.11.2017 05:00:00 6,9 4,7 41 22 52 28 NW 991,4 24 0,0
19.11.2017 04:00:00 7,4 3,3 26 14 45 25 NW 991,2 50 0,0
19.11.2017 03:00:00 7,8 3,1 31 17 51 28 NW 990,8 34 0,0
19.11.2017 02:00:00 7,9 3,2 40 21 53 28 WNW 991,0 21 0,0
19.11.2017 01:00:00 8,0 3,1 41 22 54 29 WNW 991,2 22 0,0
19.11.2017 00:00:00 8,0 3,5 37 20 58 31 W 991,6 20 0,0
18.11.2017 23:00:00 8,5 4,3 37 20 53 29 W 992,1 14 0,0
18.11.2017 22:00:00 8,0 3,1 38 20 55 30 W 992,8 18 0,0
18.11.2017 21:00:00 8,3 3,9 39 21 56 31 W 993,3 15 0,0
18.11.2017 20:00:00 8,5 4,3 39 21 58 31 W 993,7 18 0,0
18.11.2017 19:00:00 7,8 4,6 36 20 56 31 WSW 994,1 18 0,0
18.11.2017 18:00:00 7,6 4,2 40 22 56 30 WSW 995,0 19 0,0
18.11.2017 17:00:00 7,5 3,5 34 18 54 29 WSW 995,8 22 0,0
18.11.2017 16:00:00 7,5 2,8 35 19 51 28 W 996,6 23 0,0
18.11.2017 15:00:00 7,1 1,0 35 19 51 27 W 997,0 31 0,0
18.11.2017 14:00:00 6,9 1,2 35 19 51 28 W 997,5 40 0,0
18.11.2017 13:00:00 6,9 1,6 37 20 50 27 W 997,9 37 0,0
18.11.2017 12:00:00 6,2 2,6 33 18 55 30 W 997,9 19 0,0
18.11.2017 11:00:00 6,3 2,2 35 19 52 28 WSW 998,1 24 0,0
18.11.2017 10:00:00 6,2 2,1 39 21 53 29 WSW 998,7 21 0,0
18.11.2017 09:00:00 6,4 3,2 41 22 58 31 WSW 999,2 21 0,0
18.11.2017 08:00:00 6,5 3,5 39 21 55 30 WSW 999,5 20 0,0
18.11.2017 07:00:00 6,2 3,5 35 19 63 34 WSW 999,8 14 0,0
18.11.2017 06:00:00 6,2 4,2 54 29 68 37 WSW 1000,4 9 0,0
18.11.2017 05:00:00 7,4 5,0 53 29 68 37 SW 1001,4 12 0,0
18.11.2017 04:00:00 7,2 4,5 53 29 67 36 SW 1002,3 9 0,0
18.11.2017 03:00:00 6,8 5,4 52 28 74 40 WSW 1004,1 2,8 3,1
18.11.2017 02:00:00 7,9 5,4 59 32 76 41 SW 1005,0 8 0,0
18.11.2017 01:00:00 7,8 5,6 59 32 78 42 SW 1005,9 7 0,2
18.11.2017 00:00:00 7,7 5,5 56 30 68 37 SW 1007,3 8 0,0
17.11.2017 23:00:00 7,9 5,9 53 28 66 35 SW 1008,2 7 0,0
17.11.2017 22:00:00 7,9 5,9 49 27 68 37 SW 1009,5 9 0,0
17.11.2017 21:00:00 7,9 5,0 49 27 68 37 SW 1010,3 10 0,0
17.11.2017 20:00:00 8,0 5,1 52 28 65 35 SW 1010,9 9 0,0
17.11.2017 19:00:00 8,3 4,9 52 28 62 34 SW 1011,9 10 0,0
17.11.2017 18:00:00 8,2 4,6 48 26 69 37 SW 1012,8 11 0,0
17.11.2017 17:00:00 8,7 4,9 46 25 61 33 WSW 1013,4 11 0,0
17.11.2017 16:00:00 8,8 4,6 49 26 67 36 WSW 1013,5 11 0,0
17.11.2017 15:00:00 9,0 3,8 48 26 67 36 WSW 1013,8 13 0,0
17.11.2017 14:00:00 9,1 3,5 46 25 64 34 WSW 1014,4 13 0,0
17.11.2017 13:00:00 9,1 3,7 46 25 64 35 WSW 1014,8 12 0,0
17.11.2017 12:00:00 9,0 4,0 44 24 61 33 WSW 1015,1 11 0,0
17.11.2017 11:00:00 8,9 4,1 38 21 59 32 W 1015,3 13 0,0
17.11.2017 10:00:00 8,7 4,3 34 18 59 32 W 1015,4 12 0,0
17.11.2017 09:00:00 8,4 2,4 43 23 57 31 W 1014,6 15 0,0
17.11.2017 08:00:00 8,2 4,0 39 21 65 35 W 1014,3 13 0,0
17.11.2017 07:00:00 8,3 3,1 46 25 72 39 W 1013,7 15 0,0
17.11.2017 06:00:00 8,2 2,2 49 26 67 36 W 1013,4 14 0,0
17.11.2017 05:00:00 8,2 2,0 48 26 69 37 W 1013,0 15 0,0
17.11.2017 04:00:00 8,3 2,7 46 25 67 36 W 1012,8 15 0,0
17.11.2017 03:00:00 8,3 2,3 54 29 74 40 W 1012,5 16 0,0
17.11.2017 02:00:00 8,2 2,4 50 27 74 40 W 1012,2 13 0,0
17.11.2017 01:00:00 8,2 2,4 48 26 73 39 W 1011,8 14 0,0
17.11.2017 00:00:00 8,5 2,9 46 25 66 36 W 1011,1 15 0,0
16.11.2017 23:00:00 8,3 2,9 49 26 72 39 W 1010,7 16 0,0
16.11.2017 22:00:00 8,4 4,0 46 25 66 35 W 1010,2 17 0,0
16.11.2017 21:00:00 8,4 6,4 39 21 95 51 WSW 1009,6 10 0,7
16.11.2017 20:00:00 9,5 8,4 57 31 70 38 SSW 1008,7 6 0,1
16.11.2017 19:00:00 9,3 8,5 53 28 66 36 SSW 1009,5 6 0,3
16.11.2017 18:00:00 9,1 8,2 52 28 65 35 SSW 1010,0 6 0,0
16.11.2017 17:00:00 8,9 8,1 51 27 64 35 SSW 1011,5 5 0,0
16.11.2017 16:00:00 8,9 8,1 50 27 59 32 S 1012,4 4,7 0,0
16.11.2017 15:00:00 8,6 8,0 48 26 59 32 S 1013,6 3,3 0,0
16.11.2017 14:00:00 8,6 7,1 46 25 55 30 S 1015,0 12 0,0
16.11.2017 13:00:00 8,0 6,6 40 21 54 29 S 1016,2 12 0,0
16.11.2017 12:00:00 8,3 6,3 43 23 51 28 S 1017,3 13 0,0
16.11.2017 11:00:00 8,4 6,2 40 22 47 25 S 1018,3 17 0,0
16.11.2017 10:00:00 8,1 5,7 30 16 35 19 S 1019,2 17 0,0
16.11.2017 09:00:00 7,8 5,8 29 16 35 19 SSW 1019,7 16 0,0
16.11.2017 08:00:00 7,5 5,1 27 15 31 17 SSW 1020,2 18 0,0
16.11.2017 07:00:00 7,7 6,2 22 12 27 15 SSW 1020,2 15 0,0
16.11.2017 06:00:00 8,0 5,3 18 10 27 14 SW 1020,5 18 0,0
16.11.2017 05:00:00 7,9 5,2 21 12 26 14 WSW 1020,6 17 0,0
16.11.2017 04:00:00 7,8 4,7 19 10 28 15 WSW 1020,8 17 0,0
16.11.2017 03:00:00 8,0 3,6 19 10 29 15 W 1020,7 24 0,0
16.11.2017 02:00:00 7,9 3,4 16 9 27 15 W 1021,0 26 0,0
16.11.2017 01:00:00 8,3 3,9 18 10 31 17 W 1021,2 22 0,0
16.11.2017 00:00:00 8,2 3,3 20 11 25 14 W 1021,0 26 0,0
15.11.2017 23:00:00 8,4 3,6 19 10 29 16 W 1020,8 24 0,0
15.11.2017 22:00:00 8,3 2,1 25 14 33 18 WNW 1020,7 27 0,0
15.11.2017 21:00:00 8,5 2,3 25 14 36 19 WNW 1020,4 27 0,0
15.11.2017 20:00:00 8,7 2,0 29 15 37 20 WNW 1020,3 23 0,0
15.11.2017 19:00:00 8,6 3,0 31 17 41 22 WNW 1020,0 23 0,0
15.11.2017 18:00:00 8,6 3,6 30 16 42 23 WNW 1019,6 22 0,0
15.11.2017 17:00:00 8,5 3,3 32 18 42 23 WNW 1019,3 23 0,0
15.11.2017 16:00:00 8,5 3,7 33 18 48 26 WNW 1018,7 24 0,0
15.11.2017 15:00:00 8,8 3,2 38 21 51 28 WNW 1018,1 29 0,0
15.11.2017 14:00:00 9,0 3,4 39 21 56 30 WNW 1017,6 21 0,0
15.11.2017 13:00:00 9,2 3,8 40 22 56 30 W 1017,0 19 0,0
15.11.2017 12:00:00 9,6 6,0 37 20 54 29 W 1016,7 17 0,0
15.11.2017 11:00:00 9,4 7,0 34 18 51 27 WSW 1016,1 12 0,0
15.11.2017 10:00:00 8,9 7,0 36 19 52 28 WSW 1015,7 16 0,0
15.11.2017 09:00:00 8,7 6,5 35 19 49 27 WSW 1015,7 15 0,0
15.11.2017 08:00:00 8,4 6,4 37 20 51 28 WSW 1015,2 14 0,0
15.11.2017 07:00:00 8,6 6,4 35 19 49 27 WSW 1014,9 15 0,0
15.11.2017 06:00:00 8,7 6,3 36 19 49 27 WSW 1014,6 15 0,0
15.11.2017 05:00:00 9,0 6,4 33 18 49 27 W 1014,4 15 0,0
15.11.2017 04:00:00 8,7 5,8 27 15 37 20 W 1014,6 17 0,0
15.11.2017 03:00:00 8,7 4,9 22 12 34 18 W 1014,6 19 0,0
15.11.2017 02:00:00 8,5 4,7 27 14 37 20 W 1014,4 28 0,0
15.11.2017 01:00:00 8,5 5,2 22 12 31 17 W 1014,3 24 0,0
15.11.2017 00:00:00 8,3 5,1 25 14 33 18 W 1014,0 28 0,0
14.11.2017 23:00:00 8,4 5,3 23 13 34 18 W 1014,0 22 0,0
14.11.2017 22:00:00 8,4 5,2 27 14 36 20 WNW 1013,9 28 0,0
14.11.2017 21:00:00 8,4 5,2 25 14 37 20 WNW 1013,3 26 0,0
14.11.2017 20:00:00 7,7 4,5 29 16 43 23 NW 1012,7 50 0,0
14.11.2017 19:00:00 6,9 4,6 32 17 46 25 NW 1012,0 50 0,0
14.11.2017 18:00:00 7,1 5,4 34 18 44 24 WNW 1010,6 40 0,0
14.11.2017 17:00:00 6,3 5,7 7 4 18 10 NNW 1010,1 7 0,2
14.11.2017 16:00:00 6,1 5,4 8 4 13 7 NNE 1009,0 25 0,0
14.11.2017 15:00:00 6,4 5,7 11 6 23 12 E 1007,6 17 0,0
14.11.2017 14:00:00 6,6 5,7 19 10 29 15 SE 1006,7 4,4 0,0
14.11.2017 13:00:00 6,4 5,0 25 14 33 18 SSE 1006,9 7 0,9
14.11.2017 12:00:00 6,2 4,0 27 15 41 22 S 1007,7 12 0,7
14.11.2017 11:00:00 6,0 3,8 39 21 48 26 SSW 1008,6 12 0,4
14.11.2017 10:00:00 5,7 3,9 40 21 47 26 SSW 1009,5 8 0,5
14.11.2017 09:00:00 5,6 3,8 36 19 41 22 SW 1010,4 9 0,4
14.11.2017 08:00:00 5,7 2,9 24 13 47 26 SW 1011,1 13 0,0
14.11.2017 07:00:00 6,5 2,4 35 19 50 27 WSW 1011,0 38 0,0
14.11.2017 06:00:00 7,1 0,3 27 15 37 20 WSW 1011,2 50 0,0
14.11.2017 05:00:00 6,3 4,6 21 12 31 17 SW 1011,6 20 0,0
14.11.2017 04:00:00 6,2 3,0 27 15 31 17 SSW 1011,9 44 0,0
14.11.2017 03:00:00 6,0 3,8 24 13 30 16 SE 1012,4 50 0,0
14.11.2017 02:00:00 5,4 3,2 21 11 26 14 SSE 1013,3 50 0,0
14.11.2017 01:00:00 5,2 2,0 15 8 19 10 SE 1013,9 50 0,0
14.11.2017 00:00:00 5,1 -0,3 13 7 18 10 SSE 1014,3 50 0,0
13.11.2017 23:00:00 3,8 -2,0 5 3 8 5 ESE 1014,7 50 0,0
13.11.2017 22:00:00 3,6 -3,0 7 4 9 5 ESE 1014,8 50 0,0
13.11.2017 21:00:00 3,8 -3,0 3 1 8 5 E 1014,8 50 0,0
13.11.2017 20:00:00 3,4 -2,1 7 4 13 7 NE 1014,7 50 0,0

tt = Température de l'air
td = dewpoint
ff = Vitesse du vent
fx = gusts
dd = Direction du vent
ppp = reduced air pressure
vv = visibility
rr = Quantités de précipitations

stations d'obs. à proximité